Location: Lussas
(44.6119°N, 4.4726°E)
Time: 18:22:50
(UTC+00:00)

CENTAUR R/B - Visible Passes

Search period start: 16 April 2021 00:00
Search period end: 26 April 2021 00:00
Orbit: 742 x 1446 km, 63.4° (Epoch: 31 March)

Date Brightness Start Highest point End Pass type
(mag) Time Alt. Az. Time Alt. Az. Time Alt. Az.
16 Apr 4.8 20:21:13 10° NW 20:28:07 29° WSW 20:35:22 10° SSW visible
17 Apr 4.2 19:32:20 10° NW 19:40:07 45° WSW 19:48:22 10° S visible
18 Apr 5.4 20:36:57 10° WNW 20:41:33 16° WSW 20:46:17 10° SW visible
19 Apr 5.1 19:47:09 10° WNW 19:53:45 26° WSW 20:00:40 10° SSW visible
20 Apr 4.5 18:58:10 10° NW 19:05:47 40° WSW 19:13:52 10° S visible
21 Apr 5.6 20:03:20 10° WNW 20:07:08 14° WSW 20:11:03 10° SW visible
22 Apr 5.4 19:13:07 10° WNW 19:19:23 23° WSW 19:25:54 10° SSW visible
24 Apr 5.8 19:29:59 10° W 19:32:43 12° W 19:35:29 10° WSW visible
